Погода в Узде

Беларусь     53°27′54″N   27°12′53″E
темп.,
°C
ветер,
м/с
пор.,
м/с
влажн.,
%
обл.,
%
осадки,
мм/ч
давл.,
гПа
погр.,
м
23 сентября, чт
чт2300:00+5сз4797100 0.2 1016857
03:00+5сз4795100 0.8 1016665
06:00+5сз4794100 0.9 1015920
09:00+5сз3594100 1.0 1014820
12:00+6зсз3592100 0.1 1014446
15:00+8юз138198 0.2 1012501
18:00+10ю257798 0.0 1009200
21:00+8ю51193100 0.8 1006441
24 сентября, пт
пт2400:00+9ююз61497100 2.3 1001604
03:00+10ю81596100 8.0 994851
06:00+10з71287100 7.8 991918
09:00+8з71383100 8.0 9931121
12:00+8зсз61295100 6.0 9931116
15:00+10зсз7138597 9.8 9961109
18:00+9зсз71386100 0.1 998975
21:00+9зсз61290100 0.2 1001846
25 сентября, сб
сб2500:00+9зсз61290100 0.0 1004641
03:00+7зсз51194100 0.0 1006486
06:00+7з41093100 0.0 1007379
09:00+9зюз4997100 0.5 1008391
12:00+10зюз51395100 1.3 1008573
15:00+12зюз61391100 1.3 1008777
18:00+13з51291100 0.2 1009717
21:00+12зсз613910 0.6 1011565
26 сентября, вс
вс2600:00+10зсз512941 0.0 1013413
03:00+8зсз5129617 0.0 1015337
06:00+7сз4109728 0.0 1017292
09:00+8ссз599474 0.0 1020382
12:00+11ссз46766 0.0 1021684
15:00+14ссз57595 0.0 10221219
18:00+12с47701 0.0 1022247
21:00+7ссв35825 0.0 102469
27 сентября, пн
пн2700:00+6с22821 0.0 102522
03:00+6с22835 0.0 102613
06:00+5ссв22855 0.0 102625
09:00+7св35815 0.0 1027179
12:00+12всв45661 0.0 1027823
15:00+13всв445821 0.0 10261276
18:00+12всв366590 0.0 1026172
21:00+10в487981 0.0 1027345